Stations météo

réclame
Mon MeteoGroup
Bezier-Vias, France (7638): Température de l'air & dewpoint: 12.08.2018 02:00:00 - 18.08.2018 02:00:00 (CEST)Bezier-Vias, France (7638): Vitesse du vent & gusts: 12.08.2018 02:00:00 - 18.08.2018 02:00:00 (CEST)Bezier-Vias, France (7638): Direction du vent: 12.08.2018 02:00:00 - 18.08.2018 02:00:00 (CEST)Bezier-Vias, France (7638): reduced air pressure: 12.08.2018 02:00:00 - 18.08.2018 02:00:00 (CEST)Bezier-Vias, France (7638): visibility: 12.08.2018 02:00:00 - 18.08.2018 02:00:00 (CEST)Bezier-Vias, France (7638): Quantités de précipitations: 12.08.2018 02:00:00 - 18.08.2018 02:00:00 (CEST)
Date & Time tt [°C] td [°C] ff [km/h] ff [knt] fx [km/h] fx [knt] dd ppp [hPa] vv [km] rr [mm]
18.08.2018 02:00:00 21,2 14,6 26 14 42 23 W 1019,4 60 0,0
18.08.2018 01:00:00 22,0 14,9 20 11 37 20 W 1019,3 60 0,0
18.08.2018 00:00:00 23,3 14,6 16 9 26 14 WNW 1018,6 60 0,0
17.08.2018 23:00:00 23,4 14,9 11 6 26 14 WNW 1018,3 60 0,0
17.08.2018 22:00:00 24,2 14,9 9 5 26 14 NNW 1018,0 58 0,0
17.08.2018 21:00:00 25,1 14,8 16 9 27 15 NNW 1016,8 60 0,0
17.08.2018 20:00:00 25,7 15,1 18 10 36 19 NW 1016,5 59 0,0
17.08.2018 19:00:00 26,1 14,5 24 13 36 19 N 1016,3 54 0,0
17.08.2018 18:00:00 27,2 15,2 21 11 35 19 NNW 1016,6 57 0,0
17.08.2018 17:00:00 25,5 15,5 28 15 41 22 NNW 1016,8 60 0,0
17.08.2018 16:00:00 26,4 16,9 22 12 37 20 NNW 1017,1 54 0,0
17.08.2018 15:00:00 26,5 16,7 23 12 41 22 NW 1017,2 55 0,0
17.08.2018 14:00:00 25,1 17,8 24 13 40 21 NW 1017,3 60 0,0
17.08.2018 13:00:00 23,8 17,5 22 12 37 20 W 1017,6 60 0,0
17.08.2018 12:00:00 23,7 16,7 21 11 38 20 W 1017,5 58 0,0
17.08.2018 11:00:00 23,5 16,8 25 13 46 25 W 1017,4 45 0,0
17.08.2018 10:00:00 24,1 16,6 24 13 44 24 W 1016,7 47 0,0
17.08.2018 09:00:00 22,9 17,4 27 14 43 23 W 1016,4 55 0,0
17.08.2018 08:00:00 22,6 17,9 25 14 43 23 W 1015,9 45 0,0
17.08.2018 07:00:00 22,2 18,0 20 11 35 19 W 1015,4 40 0,0
17.08.2018 06:00:00 22,0 18,4 11 6 18 10 WNW 1014,6 41 0,0
17.08.2018 05:00:00 19,8 17,9 8 4 11 6 NW 1014,6 37 0,0
17.08.2018 04:00:00 19,0 16,6 3 2 7 4 NNW 1014,8 20 0,0
17.08.2018 03:00:00 19,6 17,2 4 2 7 4 E 1014,8 28 0,0
17.08.2018 02:00:00 19,6 17,2 5 3 7 4 SW 1014,8 31 0,0
17.08.2018 01:00:00 20,2 17,4 2 1 8 4 NE 1014,9 37 0,0
17.08.2018 00:00:00 20,5 17,3 2 1 4 2 N 1015,1 47 0,0
16.08.2018 23:00:00 20,7 17,5 0 0 6 3 N 1015,1 46 0,0
16.08.2018 22:00:00 21,8 18,0 2 1 3 2 ENE 1015,0 53 0,0
16.08.2018 21:00:00 22,7 18,2 2 1 13 7 W 1014,5 44 0,0
16.08.2018 20:00:00 24,0 18,4 7 4 23 12 S 1014,3 56 0,0
16.08.2018 19:00:00 25,3 18,0 16 8 24 13 S 1014,1 29 0,0
16.08.2018 18:00:00 26,4 16,6 13 7 25 14 SSE 1014,1 26 0,0
16.08.2018 17:00:00 27,4 16,7 16 9 27 14 S 1014,4 27 0,0
16.08.2018 16:00:00 28,0 17,2 14 7 27 14 SSE 1014,7 29 0,0
16.08.2018 15:00:00 27,4 17,6 14 8 31 17 SSE 1015,1 27 0,0
16.08.2018 14:00:00 27,7 16,6 19 10 30 16 S 1015,5 33 0,0
16.08.2018 13:00:00 29,2 16,4 16 9 28 15 S 1015,5 44 0,0
16.08.2018 12:00:00 29,1 14,1 12 7 22 12 E 1015,8 59 0,0
16.08.2018 11:00:00 28,0 13,1 10 6 20 11 E 1016,0 60 0,0
16.08.2018 10:00:00 27,3 13,6 6 3 14 8 E 1016,1 50 0,0
16.08.2018 09:00:00 23,4 14,1 5 3 11 6 N 1016,1 56 0,0
16.08.2018 08:00:00 19,6 14,4 3 2 9 5 N 1015,9 50 0,0
16.08.2018 07:00:00 17,5 13,8 5 3 11 6 N 1015,6 60 0,0
16.08.2018 06:00:00 17,9 14,0 5 3 10 5 N 1015,6 60 0,0
16.08.2018 05:00:00 17,8 14,1 4 2 8 4 NNW 1015,9 60 0,0
16.08.2018 04:00:00 18,3 14,4 3 2 8 4 N 1016,0 60 0,0
16.08.2018 03:00:00 18,6 14,1 2 1 4 2 NNW 1016,3 59 0,0
16.08.2018 02:00:00 19,4 14,2 4 2 7 4 WNW 1016,5 59 0,0
16.08.2018 01:00:00 20,3 14,0 3 2 6 3 N 1016,5 45 0,0
16.08.2018 00:00:00 21,9 14,5 3 1 6 3 WNW 1016,4 60 0,0
15.08.2018 23:00:00 23,2 13,4 2 1 10 5 SSW 1016,5 58 0,0
15.08.2018 22:00:00 24,4 14,5 3 2 9 5 ESE 1016,5 60 0,0
15.08.2018 21:00:00 26,7 11,6 6 3 17 9 S 1015,6 60 0,0
15.08.2018 20:00:00 28,3 10,9 11 6 23 13 S 1015,5 46 0,0
15.08.2018 19:00:00 28,7 11,3 15 8 27 14 S 1015,5 28 0,0
15.08.2018 18:00:00 29,9 10,9 18 10 31 17 S 1015,8 31 0,0
15.08.2018 17:00:00 29,8 9,8 17 9 30 16 SSE 1016,0 36 0,0
15.08.2018 16:00:00 31,1 9,9 11 6 28 15 NNW 1016,2 44 0,0
15.08.2018 15:00:00 31,6 10,9 12 6 31 17 N 1016,6 43 0,0
15.08.2018 14:00:00 29,8 9,8 9 5 40 22 NNE 1017,1 49 0,0
15.08.2018 13:00:00 29,1 9,8 9 5 34 18 NNW 1017,6 40 0,0
15.08.2018 12:00:00 28,2 9,5 21 12 34 18 NW 1017,9 41 0,0
15.08.2018 11:00:00 26,8 10,5 18 10 32 17 NW 1018,1 45 0,0
15.08.2018 10:00:00 25,4 11,2 21 11 33 18 WNW 1018,3 52 0,0
15.08.2018 09:00:00 22,7 13,2 16 9 25 13 W 1018,4 60 0,0
15.08.2018 08:00:00 20,6 13,1 12 7 19 10 W 1018,6 60 0,0
15.08.2018 07:00:00 18,5 13,1 14 8 24 13 WNW 1018,3 60 0,0
15.08.2018 06:00:00 18,9 13,3 16 9 24 13 WNW 1018,3 60 0,0
15.08.2018 05:00:00 18,1 13,2 7 4 14 8 W 1018,6 60 0,0
15.08.2018 04:00:00 19,1 13,5 12 6 17 9 WNW 1018,3 60 0,0
15.08.2018 03:00:00 20,7 12,7 10 6 22 12 W 1018,3 60 0,0
15.08.2018 02:00:00 21,2 12,9 15 8 29 16 WNW 1018,2 60 0,0
15.08.2018 01:00:00 21,8 12,9 18 10 37 20 WNW 1018,3 60 0,0
15.08.2018 00:00:00 23,5 12,8 27 14 41 22 WNW 1017,9 60 0,0
14.08.2018 23:00:00 23,6 12,9 26 14 39 21 WNW 1018,0 60 0,0
14.08.2018 22:00:00 23,8 12,7 21 12 40 22 WNW 1018,0 60 0,0
14.08.2018 21:00:00 25,1 12,3 27 15 53 28 WNW 1017,4 60 0,0
14.08.2018 20:00:00 26,5 11,8 32 17 55 30 WNW 1016,4 15 0,0
14.08.2018 19:00:00 27,5 11,5 40 21 60 32 WNW 1015,8 13 0,0
14.08.2018 18:00:00 28,2 11,3 40 21 57 31 WNW 1016,0 13 0,0
14.08.2018 17:00:00 29,0 11,5 37 20 60 32 WNW 1015,9 16 0,0
14.08.2018 16:00:00 28,8 10,9 39 21 63 34 WNW 1015,9 19 0,0
14.08.2018 15:00:00 28,1 10,3 35 19 57 31 NW 1016,0 25 0,0
14.08.2018 14:00:00 27,5 9,8 34 18 50 27 WNW 1016,6 34 0,0
14.08.2018 13:00:00 26,6 11,5 31 17 46 25 NW 1017,1 45 0,0
14.08.2018 12:00:00 25,7 12,2 31 17 44 24 WNW 1017,7 52 0,0
14.08.2018 11:00:00 25,2 12,4 27 14 38 20 NNW 1017,8 60 0,2
14.08.2018 10:00:00 22,7 14,5 18 10 29 16 WNW 1017,9 60 0,0
14.08.2018 09:00:00 22,6 14,9 12 6 20 11 WNW 1017,9 60 0,0
14.08.2018 08:00:00 20,2 16,0 8 4 13 7 W 1017,3 60 0,0
14.08.2018 07:00:00 18,2 15,4 8 4 28 15 W 1016,5 60 0,0
14.08.2018 06:00:00 19,7 16,3 17 9 26 14 WNW 1016,0 60 0,0
14.08.2018 05:00:00 19,4 15,9 13 7 20 11 WNW 1016,0 60 0,0
14.08.2018 04:00:00 20,0 17,0 12 6 19 10 W 1015,6 60 0,0
14.08.2018 03:00:00 20,8 17,6 14 8 24 13 WNW 1015,3 60 0,0
14.08.2018 02:00:00 21,6 17,6 17 9 34 18 W 1015,5 60 0,0
14.08.2018 01:00:00 22,5 17,4 21 12 34 18 W 1015,6 60 0,0
14.08.2018 00:00:00 24,1 15,6 16 9 25 14 WNW 1015,2 60 0,0
13.08.2018 23:00:00 24,3 15,5 11 6 26 14 NW 1014,7 60 0,0
13.08.2018 22:00:00 24,9 16,1 14 8 25 14 NNW 1014,1 57 0,0
13.08.2018 21:00:00 25,8 16,4 12 6 20 11 N 1013,6 60 0,0
13.08.2018 20:00:00 25,7 19,1 6 4 19 10 SSE 1012,5 58 0,0
13.08.2018 19:00:00 26,1 18,0 12 7 21 11 S 1012,2 57 0,0
13.08.2018 18:00:00 26,6 18,7 16 9 30 16 S 1012,2 51 0,0
13.08.2018 17:00:00 28,9 18,4 14 7 26 14 S 1012,0 34 0,0
13.08.2018 16:00:00 28,0 18,7 15 8 28 15 SSE 1012,7 41 0,0
13.08.2018 15:00:00 27,7 18,7 14 7 30 16 S 1013,1 50 0,0
13.08.2018 14:00:00 28,2 18,0 13 7 29 16 SE 1013,5 57 0,0
13.08.2018 13:00:00 28,2 16,1 7 4 18 10 NNW 1014,0 60 0,0
13.08.2018 12:00:00 27,1 17,3 4 2 20 11 NW 1014,5 60 0,0
13.08.2018 11:00:00 24,5 17,5 9 5 22 12 NNW 1014,4 57 0,0
13.08.2018 10:00:00 24,1 17,8 10 6 22 12 NNE 1014,0 60 0,0
13.08.2018 09:00:00 21,8 18,4 9 5 19 11 NNW 1014,0 55 0,0
13.08.2018 08:00:00 19,0 17,8 10 6 16 9 N 1013,7 20 0,0
13.08.2018 07:00:00 18,4 16,9 7 4 14 8 WNW 1012,9 19 0,0
13.08.2018 06:00:00 19,2 17,5 9 5 17 9 W 1013,0 42 0,0
13.08.2018 05:00:00 19,8 17,8 9 5 14 8 W 1013,0 57 0,0
13.08.2018 04:00:00 19,9 17,9 9 5 16 9 NW 1014,4 60 0,0
13.08.2018 03:00:00 19,9 17,5 6 4 11 6 WSW 1014,3 60 0,0
13.08.2018 02:00:00 19,8 17,6 7 4 26 14 NNE 1013,4 60 0,0
13.08.2018 01:00:00 19,5 17,3 17 9 33 18 NNE 1011,6 60 0,0
13.08.2018 00:00:00 19,6 17,2 25 14 50 27 NNE 1013,3 60 0,0
12.08.2018 23:00:00 20,6 18,2 41 22 58 31 WNW 1015,2 3,2 1,0
12.08.2018 22:00:00 25,9 23,0 16 9 22 12 E 1013,6 15 0,0
12.08.2018 21:00:00 25,9 22,8 11 6 21 12 ESE 1013,9 17 0,0
12.08.2018 20:00:00 26,0 22,5 17 9 23 13 E 1013,5 20 0,0
12.08.2018 19:00:00 26,3 20,6 14 7 25 13 ESE 1013,5 27 0,0
12.08.2018 18:00:00 26,7 19,1 15 8 29 16 SE 1013,9 33 0,0
12.08.2018 17:00:00 28,2 19,4 16 9 31 17 SE 1014,7 34 0,0
12.08.2018 16:00:00 29,0 19,9 16 8 30 16 SE 1015,0 20 0,0
12.08.2018 15:00:00 29,6 19,3 14 8 30 16 ESE 1015,7 20 0,0
12.08.2018 14:00:00 28,8 19,1 14 7 28 15 SSE 1016,2 38 0,0
12.08.2018 13:00:00 28,5 15,1 13 7 27 14 ESE 1016,9 42 0,0
12.08.2018 12:00:00 27,9 11,0 16 9 29 16 E 1017,4 49 0,0
12.08.2018 11:00:00 27,7 10,0 11 6 24 13 E 1017,3 58 0,0
12.08.2018 10:00:00 25,6 11,0 14 7 23 12 ENE 1017,2 60 0,0
12.08.2018 09:00:00 23,2 12,5 8 4 15 8 NNE 1017,4 60 0,0
12.08.2018 08:00:00 20,0 13,2 10 5 17 9 N 1017,3 60 0,0
12.08.2018 07:00:00 17,9 13,4 11 6 16 9 N 1017,1 60 0,0
12.08.2018 06:00:00 18,0 13,5 9 5 16 9 NNE 1017,0 60 0,0
12.08.2018 05:00:00 18,2 14,1 6 3 11 6 N 1017,3 60 0,0
12.08.2018 04:00:00 18,8 14,3 8 4 16 9 N 1017,7 60 0,0
12.08.2018 03:00:00 20,0 15,2 10 5 16 9 NNE 1017,8 60 0,0
12.08.2018 02:00:00 20,2 16,6 10 5 17 9 NNE 1018,1 60 0,0

tt = Température de l'air
td = dewpoint
ff = Vitesse du vent
fx = gusts
dd = Direction du vent
ppp = reduced air pressure
vv = visibility
rr = Quantités de précipitations

stations d'obs. à proximité